Regional Weather Roundup
Issued by NWS

Home | Current Version | Previous Version | Graphics & Text | Print | Product List | Glossary On
Versions: 1 2 3 4 5 6 7 8 9 10 11 12 13 14 15 16 17 18 19 20 21 22 23 24 25 26 27 28 29 30 31 32 33 34 35 36 37 38 39 40 41 42 43 44 45 46 47 48 49 50
000
ASUS44 KMEG 260000
RWRTN
TENNESSEE HOURLY STATE WEATHER ROUNDUP
NATIONAL WEATHER SERVICE MEMPHIS TN
700 PM CDT THU AUG 25 2016

TNZ002-004-019-021-049-052-054-088>092-260100-
WEST TENNESSEE

CITY           SKY/WX    TMP DP  RH WIND       PRES   REMARKS
MEMPHIS INTL   CLOUDY    79  73  82 CALM      30.06R
NWS MEMPHIS      N/A     80 N/A N/A MISG        N/A
JACKSON        CLOUDY    82  80  94 CALM      30.07S HX  94
DYERSBURG      CLOUDY    88  75  66 MISG      30.05S HX  97
PARIS          CLEAR     82  79  89 CALM      30.08R HX  93
LEXINGTON      CLEAR     81  79  94 CALM      30.07S
$$

TNZ008-025-027-028-033-062-065-066-260100-
NORTH MIDDLE TENNESSEE

CITY           SKY/WX    TMP DP  RH WIND       PRES   REMARKS
NASHVILLE      MOCLDY    85  76  74 CALM      30.08S HX  94
CLARKSVILLE    PTCLDY    86  75  69 SW3       30.07S HX  95
COOKEVILLE     CLEAR     86  77  74 CALM      30.10S HX  97
CROSSVILLE     CLOUDY    81  72  74 CALM      30.17S
$$

TNZ061-075-076-078-094-096-097-260100-
SOUTH MIDDLE TENNESSEE

CITY           SKY/WX    TMP DP  RH WIND       PRES   REMARKS
SHELBYVILLE    CLEAR     84  77  79 CALM      30.10R HX  94
$$

TNZ017-018-042-046-047-260100-
NORTHEAST TENNESSEE

CITY           SKY/WX    TMP DP  RH WIND       PRES   REMARKS
TRI CITIES     PTCLDY    84  70  62 W6        30.15R
$$

TNZ012-013-036-069-073-074-260100-
CENTRAL EAST TENNESSEE

CITY           SKY/WX    TMP DP  RH WIND       PRES   REMARKS
KNOXVILLE      PTCLDY    88  70  55 NW5       30.09F HX  93
OAK RIDGE      CLEAR     84  73  69 CALM      30.12  HX  90
$$

TNZ083-085-099-260100-
SOUTHEAST TENNESSEE

CITY           SKY/WX    TMP DP  RH WIND       PRES   REMARKS
CHATTANOOGA    PTCLDY    89  71  55 NE9       30.07F HX  95
$$

SKY/WX REPORTED AS FAIR MEANS FEW OR NO CLOUDS BELOW
12 THOUSAND FEET.





USA.gov is the U.S. government's official web portal to all federal, state and local government web resources and services.